User: anonymous   Login
Location: Unspecified
(0.0000°N, 0.0000°E)
Time: 11:16:24
(UTC+00:00)
Language:

COSMO-SKYMED 1 - Orbit

View from above orbital plane
View from above orbital plane
View from above satellite
View from above satellite

Ground track
Ground track

The orbit data is extracted from the following two-line orbital elements,

1 31598U 07023A   18020.15247222  .00000295  00000-0  43611-4 0  9999
2 31598  97.8871 205.7641 0001471  81.1122 279.0226 14.82156386574582
Epoch (UTC): 20 January 2018 03:39:33
Eccentricity: 0.0001471
inclination: 97.8871°
perigee height: 621 km
apogee height: 623 km
right ascension of ascending node: 205.7641°
argument of perigee: 81.1122°
revolutions per day: 14.82156386
mean anomaly at epoch: 279.0226°
orbit number at epoch: 57458

The dashed part of the orbit path shows where the satellite is in the earth's shadow,  

DLR